[[{"header":{"parameterUnit":"m.s-1","parameterCategory":1,"la1":30.2991,"la2":30.254,"lo1":-89.0895,"lo2":-89.0444,"dy":0.0017,"dx":0.0017,"nx":28,"ny":28,"refTime":"2025-11-08T03:00:00:Z","depth":0,"parameterNumber":2,"parameterNumberName":"U-component_of_WINDS"},"data":[0,0,0,0,0,0,0,0,0,0,0,0,0,0,0,0,0,0,0,0,0,0,0,0,0,0,0,0,0,0,0,0,0,0,0,0,0,0,0,0,0,0,0,0,0,0,0,0,0,0,0,0,0,0,0,0,0,0,2.021,2.0209,0,2.0075,2.0073,2.0072,1.9841,1.9837,1.9833,1.9829,1.9696,1.9696,1.9697,0,0,0,0,0,0,0,0,0,0,0,0,0,2.0275,2.0275,2.021,2.0209,2.0207,2.0075,2.0073,2.0072,1.9842,1.9837,1.9831,1.9827,1.9695,1.9696,1.9697,0,0,0,0,0,0,0,0,0,0,0,0,0,2.0205,2.0275,2.0211,2.0076,2.0063,2.0076,2.0073,2.0071,1.9843,1.9837,1.983,1.9824,1.9695,1.9696,1.9697,1.9831,0,0,1.9699,1.9699,0,0,0,0,0,0,0,0,2.0209,2.0202,2.0098,2.0086,2.0071,1.9968,2.0047,1.9991,1.9845,1.9927,1.9828,1.9821,1.9792,1.9784,1.9773,1.9825,1.9819,1.9699,1.9699,1.97,1.97,0,0,0,0,0,0,0,2.0214,2.0207,2.0157,2.0097,2.008,2.0025,2.0007,2.0036,1.9898,1.9919,1.9902,1.9889,1.9783,1.9773,1.9769,1.9817,1.9699,1.97,1.97,1.97,1.9974,1.998,0,0,0,0,0,0,2.0238,2.0213,2.0161,2.0153,2.0125,2.0029,2.0009,2.0008,1.9897,1.9873,1.9895,1.9879,1.9775,1.9768,1.9763,1.9914,1.97,1.97,1.9701,1.9967,1.9975,1.9982,0,0,0,0,0,0,2.024,2.0236,2.0167,2.0178,2.0165,2.0035,2.0035,2.0009,1.9998,1.9878,1.9853,1.9909,1.977,1.9762,1.9816,1.9906,1.9701,1.9701,1.9959,1.9969,1.9979,2.0218,0,0,0,0,0,0,2.0243,2.0238,2.0286,2.0181,2.0165,2.0221,2.004,2.0011,1.9999,1.9977,1.9885,1.9864,1.9764,1.9816,1.9817,1.9904,1.9702,1.995,1.9964,1.9976,2.0201,2.0235,2.0264,0,0,0,0,0,2.0246,2.036,2.029,2.0285,2.0223,2.0226,2.0218,2.0099,2.0008,2.0056,1.9979,1.9867,1.9896,1.9823,1.9822,1.9911,1.9944,1.996,1.9975,2.0187,2.0228,2.0263,0,0,0,0,0,0,2.0481,2.0343,2.0264,2.0347,2.03,2.0188,2.0245,2.0146,2.0126,2.0106,1.9961,1.9943,2.0016,1.9968,1.989,2.0036,1.9902,1.9918,2.0065,2.0103,2.0133,2.0144,1.9703,0,0,0,0,0,2.0542,2.0555,2.0434,2.0519,2.0499,2.0377,2.0374,2.0287,2.0233,2.0213,2.0139,2.0093,2.0091,2.0094,2.0086,2.0192,2.017,2.0253,2.0284,2.031,2.0327,2.0381,2.0417,2.0033,2.0033,2.0032,0,0,2.0669,2.0595,2.0613,2.0564,2.0517,2.0536,2.0362,2.0388,2.0401,2.0217,2.0263,2.0209,2.0147,2.0229,2.0261,2.0191,2.0427,2.033,2.0352,2.0353,2.0401,2.0437,2.047,2.0043,2.0041,2.004,0,0,2.091,2.0855,2.0919,2.0876,2.0807,2.0725,2.0741,2.0644,2.06,2.0643,2.0506,2.052,2.052,2.0483,2.0464,2.0692,2.0589,2.0693,2.0857,2.0912,2.0943,2.0969,2.1052,2.1084,2.0709,2.071,2.071,0,2.1077,2.1097,2.0966,2.1001,2.0985,2.0817,2.0883,2.0848,2.0782,2.0775,2.0697,2.0695,2.0642,2.0713,2.0769,2.0758,2.0774,2.0704,2.0948,2.0973,2.0996,2.1074,2.1105,2.0723,2.0722,2.072,2.0719,0,2.1307,2.1324,2.1385,2.1323,2.1313,2.1364,2.1242,2.1249,2.1163,2.109,2.1138,2.1068,2.1044,2.1054,2.097,2.1114,2.1073,2.0974,2.0838,2.1048,2.1119,2.1148,2.0742,2.0738,2.0734,2.073,0,0,2.1693,2.1557,2.1582,2.1553,2.1465,2.1476,2.152,2.1495,2.1504,2.1464,2.1499,2.1503,2.1411,2.139,2.1301,2.1349,2.1537,2.1244,2.124,2.1303,2.1693,2.177,2.1807,2.1467,2.1472,2.1476,2.1699,0,2.1916,2.1982,2.1866,2.196,2.1975,2.1816,2.1855,2.1807,2.174,2.1744,2.167,2.1677,2.1554,2.154,2.1581,2.1506,2.1614,2.1487,2.15,2.1502,2.1523,2.1843,2.1923,2.2138,2.1726,2.173,2.1734,0,2.2186,2.2158,2.2254,2.2161,2.2163,2.22,2.2168,2.2173,2.2116,2.2064,2.2042,2.1936,2.1975,2.1842,2.1895,2.1812,2.181,2.1774,2.1779,2.1778,2.1633,2.1852,2.2203,2.2236,2.1776,2.1772,2.1769,0,2.246,2.2447,2.2502,2.2482,2.2375,2.2405,2.2362,2.2297,2.229,2.2263,2.2257,2.2236,2.2225,2.2212,2.2104,2.2017,2.2171,2.2029,2.2131,2.2135,2.2172,2.2172,2.253,2.2169,2.2168,2.2168,2.2167,0,2.2723,2.2789,2.2624,2.2659,2.2728,2.2594,2.2667,2.2608,2.2553,2.2575,2.2437,2.2461,2.2316,2.2325,2.2241,2.2299,2.2295,2.2256,2.2233,2.2269,2.2275,2.2267,2.2251,2.2176,2.2174,2.2173,2.2171,0,2.3041,2.2933,2.2984,2.2878,2.2854,2.291,2.282,2.2849,2.2773,2.2803,2.2802,2.2685,2.2688,2.2579,2.2561,2.2504,2.26,2.2549,2.262,2.2604,2.2714,2.2706,2.3081,2.3125,2.2735,2.2739,2.2742,0,2.3217,2.3263,2.3163,2.3167,2.313,2.3139,2.313,2.3001,2.2999,2.2938,2.2975,2.2967,2.2954,2.2967,2.2881,2.2867,2.2817,2.2949,2.2814,2.285,2.2821,2.2821,2.2826,2.2979,2.2984,2.2988,2.2991,0,2.354,2.3485,2.3477,2.3453,2.3447,2.3421,2.3387,2.3399,2.3257,2.3262,2.3263,2.3254,2.3235,2.323,2.32,2.3157,2.3053,2.3034,2.3057,2.3096,2.3135,2.3118,2.2699,2.3026,2.3023,2.302,2.3018,2.3017,2.3793,2.3828,2.3763,2.376,2.372,2.3692,2.3714,2.3641,2.364,2.3614,2.3538,2.3553,2.3496,2.3444,2.3411,2.3422,2.3357,2.339,2.3399,2.341,2.3432,2.3132,2.3416,2.3415,2.3414,2.3413,2.3412,0,2.4111,2.4061,2.406,2.4016,2.4015,2.3914,2.3871,2.3878,2.3892,2.3847,2.3837,2.384,2.3834,2.3748,2.3733,2.3759,2.3711,2.3759,2.3757,2.375,2.349,2.3472,2.3799,2.3799,2.3799,2.3799,2.3799,2.3799,2.4276,2.433,2.4268,2.4302,2.4251,2.4264,2.4249,2.4223,2.4186,2.4195,2.419,2.4133,2.4072,2.4052,2.4043,2.4018,2.402,2.4086,2.4046,2.3805,2.3768,2.3732,2.3715,2.4087,2.4087,2.4304,2.4306,2.4307]},{"header":{"parameterUnit":"m.s-1","parameterCategory":1,"la1":30.2991,"la2":30.254,"lo1":-89.0895,"lo2":-89.0444,"dy":0.0017,"dx":0.0017,"nx":28,"ny":28,"refTime":"2025-11-08T03:00:00:Z","depth":0,"parameterNumber":3,"parameterNumberName":"V-component_of_WINDS"},"data":[0,0,0,0,0,0,0,0,0,0,0,0,0,0,0,0,0,0,0,0,0,0,0,0,0,0,0,0,0,0,0,0,0,0,0,0,0,0,0,0,0,0,0,0,0,0,0,0,0,0,0,0,0,0,0,0,0,0,2.6548,2.6551,0,2.682,2.6823,2.6826,2.6812,2.6808,2.6804,2.68,2.7081,2.7092,2.7103,0,0,0,0,0,0,0,0,0,0,0,0,0,2.602,2.603,2.6547,2.6551,2.6554,2.6819,2.6823,2.6827,2.6812,2.6808,2.6803,2.6798,2.7077,2.709,2.7104,0,0,0,0,0,0,0,0,0,0,0,0,0,2.6266,2.6033,2.6547,2.6579,2.6585,2.6819,2.6823,2.6828,2.6813,2.6807,2.6802,2.6796,2.7073,2.7089,2.7106,2.7326,0,0,2.7156,2.7164,0,0,0,0,0,0,0,0,2.6252,2.6286,2.6571,2.6577,2.6584,2.6776,2.674,2.6995,2.6815,2.6727,2.68,2.6793,2.6984,2.7008,2.7072,2.7339,2.7351,2.7158,2.7168,2.7175,2.718,0,0,0,0,0,0,0,2.6235,2.6274,2.6655,2.6575,2.6583,2.6581,2.661,2.6788,2.6885,2.6734,2.6733,2.6766,2.6987,2.7056,2.7078,2.7355,2.7157,2.7172,2.7183,2.7189,2.7822,2.7829,0,0,0,0,0,0,2.6211,2.626,2.6647,2.6663,2.64,2.6596,2.6628,2.672,2.6883,2.6902,2.677,2.6764,2.703,2.7059,2.7088,2.7361,2.7175,2.7191,2.72,2.7816,2.7824,2.7831,0,0,0,0,0,0,2.62,2.6245,2.6636,2.6462,2.6511,2.6611,2.6715,2.6729,2.6798,2.6911,2.6928,2.6823,2.7027,2.7065,2.7268,2.737,2.7198,2.7213,2.7808,2.7818,2.7828,2.7905,0,0,0,0,0,0,2.6184,2.6241,2.6325,2.6464,2.6521,2.681,2.6721,2.6738,2.6826,2.682,2.6965,2.6983,2.7025,2.7243,2.7285,2.739,2.7226,2.7799,2.7812,2.7824,2.7894,2.7917,2.7936,0,0,0,0,0,2.6166,2.6335,2.6329,2.6376,2.6627,2.6816,2.6848,2.6893,2.6834,2.6921,2.6994,2.6978,2.7352,2.7264,2.7311,2.7423,2.7793,2.7808,2.7823,2.7885,2.7912,2.7936,0,0,0,0,0,0,2.6205,2.6354,2.6349,2.6568,2.6679,2.6813,2.6922,2.692,2.705,2.704,2.709,2.7122,2.7328,2.7395,2.7295,2.7647,2.7565,2.759,2.7596,2.7623,2.7644,2.7624,2.724,0,0,0,0,0,2.624,2.6379,2.6502,2.6684,2.674,2.6822,2.6905,2.693,2.7048,2.7095,2.7183,2.7299,2.7442,2.7536,2.7674,2.7903,2.7937,2.8004,2.8025,2.8041,2.8064,2.8194,2.8227,2.7882,2.7881,2.7881,0,0,2.6312,2.641,2.6495,2.6694,2.6783,2.693,2.6861,2.7017,2.7127,2.7119,2.7317,2.7386,2.7519,2.7737,2.7838,2.78,2.8166,2.8061,2.8073,2.8087,2.8213,2.8246,2.8275,2.7892,2.789,2.7888,0,0,2.6519,2.6605,2.6769,2.686,2.6997,2.7051,2.709,2.7225,2.7271,2.747,2.7469,2.76,2.7845,2.7942,2.8022,2.827,2.8262,2.8313,2.8425,2.8552,2.8579,2.8603,2.8696,2.8727,2.8335,2.8335,2.8335,0,2.6591,2.681,2.6853,2.7012,2.7101,2.7101,2.7269,2.7355,2.753,2.7593,2.7547,2.7859,2.7947,2.819,2.8251,2.8315,2.8364,2.8298,2.8571,2.8596,2.862,2.8708,2.8742,2.834,2.834,2.8339,2.8339,0,2.6895,2.7047,2.7163,2.7333,2.7435,2.7597,2.7667,2.7765,2.7782,2.7841,2.8047,2.8154,2.8316,2.8375,2.8392,2.8622,2.8595,2.856,2.8479,2.8658,2.8742,2.8776,2.8348,2.8346,2.8345,2.8343,0,0,2.7133,2.7327,2.737,2.7449,2.7601,2.772,2.7884,2.8043,2.8128,2.8249,2.839,2.8599,2.8569,2.8661,2.8689,2.88,2.8995,2.8753,2.8757,2.8797,2.926,2.9287,2.9325,2.899,2.8996,2.9002,2.925,0,2.7358,2.7648,2.7694,2.795,2.8093,2.8097,2.824,2.835,2.8411,2.8543,2.861,2.8759,2.8706,2.8762,2.8872,2.8948,2.9089,2.893,2.9124,2.913,2.9094,2.9369,2.9398,2.9627,2.9283,2.9288,2.9292,0,2.7659,2.779,2.8061,2.8198,2.826,2.8387,2.8539,2.8664,2.879,2.8827,2.8932,2.8948,2.912,2.9031,2.9271,2.9162,2.9244,2.9294,2.9304,2.9326,2.9224,2.9401,2.97,2.9736,2.9344,2.934,2.9336,0,2.7811,2.8054,2.8249,2.8316,2.848,2.857,2.8643,2.8763,2.8857,2.899,2.9052,2.9203,2.9286,2.9403,2.9461,2.9389,2.9699,2.9613,2.9737,2.9736,2.9803,2.9799,3.0123,2.9851,2.9851,2.985,2.985,0,2.8059,2.8225,2.832,2.844,2.8628,2.8679,2.8864,2.8934,2.9043,2.9178,2.919,2.9317,2.9383,2.9521,2.9567,2.9762,2.9798,2.9834,2.9845,2.9835,2.9831,2.9891,2.9878,2.9859,2.9857,2.9856,2.9854,0,2.8259,2.8329,2.8542,2.8681,2.872,2.8853,2.8972,2.909,2.9151,2.9323,2.9366,2.9462,2.9625,2.9694,2.9893,2.9924,3.0149,3.0146,3.0106,3.0111,3.0232,3.0221,3.0608,3.0663,3.0353,3.0355,3.0358,0,2.8414,2.8542,2.8696,2.8788,2.8864,2.9011,2.9108,2.9165,2.9265,2.9421,2.9522,2.9685,2.9819,3.008,3.0168,3.0322,3.0325,3.0451,3.0348,3.0336,3.0331,3.0324,3.0339,3.047,3.0473,3.0475,3.0477,0,2.8682,2.8712,2.885,2.9004,2.9119,2.9242,2.9362,2.9437,2.9513,2.9626,2.9793,2.9898,3.0103,3.0267,3.0427,3.0503,3.0505,3.0509,3.0546,3.0539,3.0512,3.0532,3.0161,3.05,3.0498,3.0496,3.0495,3.0494,2.8867,2.8983,2.9111,2.9267,2.9363,2.9476,2.9596,2.9673,2.9813,2.9986,3.0011,3.0191,3.0318,3.0534,3.0617,3.076,3.0728,3.0781,3.0795,3.0808,3.0818,3.0487,3.0788,3.0788,3.0787,3.0787,3.0787,0,2.9139,2.9222,2.9365,2.9534,2.9658,2.9648,2.9782,2.9886,3.0045,3.0163,3.0296,3.0491,3.065,3.0752,3.0914,3.1009,3.1014,3.105,3.1045,3.1063,3.0835,3.0788,3.1043,3.1043,3.1043,3.1043,3.1043,3.1043,2.9295,2.9493,2.9538,2.9785,2.9867,3.0044,3.0122,3.0228,3.0323,3.054,3.0674,3.0739,3.0853,3.1023,3.117,3.1196,3.1256,3.1295,3.1319,3.1105,3.1078,3.1053,3.1009,3.1307,3.1307,3.1536,3.1538,3.1539]}]]